Truckee-Tahoe, CA

8:40 AM PST on February 24, 2018 (GMT -0800)
Truckee-Tahoe

Weather History for KTRK - April, 2013

Change the Weather History Date:

Friday, April 19, 2013

  Actual Average Record
Temperature  
Mean Temperature 40 °F -  
Max Temperature 59 °F 50 °F 75 °F (1989)
Min Temperature 21 °F 26 °F 12 °F (2007)
Degree Days  
Heating Degree Days 25    
Moisture  
Dew Point 25 °F    
Average Humidity 62    
Maximum Humidity 87    
Minimum Humidity 27    
Precipitation  
Precipitation 0.00 in - - ()
Sea Level Pressure  
Sea Level Pressure 30.29 in    
Wind  
Wind Speed 4 mph (WSW)    
Max Wind Speed 18 mph    
Max Gust Speed 29 mph    
Visibility 10 miles    
Events      
Averages and records for this station are not official NWS values.
T = Trace of Precipitation, MM = Missing Value Source: NWS Daily Summary

Daily Weather History Graph

Daily Weather History Graph

Search for Another Location

Airport or City:

Trip Planner

Search our weather history database for the weather conditions in past years. The results will help you decide how hot, cold, wet, or windy it might be!

Date:

Astronomy

Apr. 19, 2013 Rise Set
Actual Time 6:17 AM PDT 7:42 PM PDT
Civil Twilight 5:49 AM PDT 8:10 PM PDT
Nautical Twilight 5:15 AM PDT 8:44 PM PDT
Astronomical Twilight 4:40 AM PDT 9:19 PM PDT
Moon 1:34 PM PDT (4/19) 2:33 AM PDT (4/19)
Length of Visible Light 14h 21m
Length of Day
13h 25m
Waxing Gibbous, 62% of the Moon is Illuminated
Apr 19
Waxing Gibbous
Apr 25
Full
May 2
Last Quarter
May 9
New
May 17
First Quarter

Hourly Weather History & Observations

Time (PDT) Temp. Windchill Dew Point Humidity Pressure Visibility Wind Dir Wind Speed Gust Speed Precip Events Conditions
12:15 AM 32.0 °F 28.7 °F 19.4 °F 60% 30.37 in 10.0 mi ENE 3.5 mph - N/A   Clear
12:35 AM 26.6 °F 21.2 °F 19.4 °F 74% 30.37 in 10.0 mi SSW 4.6 mph - N/A   Clear
12:55 AM 28.4 °F 24.6 °F 19.4 °F 69% 30.37 in 10.0 mi South 3.5 mph - N/A   Clear
1:15 AM 28.4 °F - 21.2 °F 74% 30.37 in 10.0 mi Calm Calm - N/A   Clear
1:35 AM 28.4 °F - 21.2 °F 74% 30.37 in 10.0 mi Calm Calm - N/A   Clear
1:55 AM 28.4 °F - 19.4 °F 69% 30.36 in 10.0 mi Calm Calm - N/A   Clear
2:15 AM 26.6 °F - 21.2 °F 80% 30.36 in 10.0 mi Calm Calm - N/A   Clear
2:35 AM 24.8 °F - 19.4 °F 80% 30.36 in 10.0 mi Calm Calm - N/A   Clear
2:55 AM 26.6 °F - 21.2 °F 80% 30.36 in 10.0 mi Calm Calm - N/A   Clear
3:15 AM 24.8 °F - 21.2 °F 86% 30.36 in 10.0 mi Calm Calm - N/A   Clear
3:35 AM 26.6 °F - 21.2 °F 80% 30.36 in 10.0 mi Calm Calm - N/A   Clear
3:55 AM 26.6 °F - 19.4 °F 74% 30.36 in 10.0 mi Calm Calm - N/A   Clear
4:15 AM 23.0 °F - 17.6 °F 80% 30.36 in 10.0 mi Calm Calm - N/A   Clear
4:35 AM 24.8 °F - 19.4 °F 80% 30.35 in 10.0 mi Calm Calm - N/A   Clear
4:55 AM 24.8 °F - 19.4 °F 80% 30.35 in 10.0 mi Calm Calm - N/A   Clear
5:15 AM 24.8 °F - 19.4 °F 80% 30.35 in 10.0 mi Calm Calm - N/A   Clear
5:35 AM 24.8 °F - 19.4 °F 80% 30.34 in 10.0 mi Calm Calm - N/A   Clear
5:55 AM 23.0 °F - 19.4 °F 86% 30.35 in 10.0 mi Calm Calm - N/A   Clear
6:15 AM 21.2 °F 16.4 °F 17.6 °F 86% 30.35 in 10.0 mi SSW 3.5 mph - N/A   Clear
6:35 AM 23.0 °F - 19.4 °F 86% 30.35 in 10.0 mi Calm Calm - N/A   Clear
6:55 AM 26.6 °F - 23.0 °F 86% 30.35 in 10.0 mi Calm Calm - N/A   Clear
7:50 AM 28.4 °F - 23.0 °F 80% 30.35 in 10.0 mi Calm Calm - N/A   Clear
8:50 AM 35.6 °F - 23.0 °F 60% 30.34 in 10.0 mi Calm Calm - N/A   Clear
9:45 AM 44.6 °F - 24.8 °F 46% 30.33 in 10.0 mi Calm Calm - N/A   Scattered Clouds
10:50 AM 53.6 °F - 26.6 °F 35% 30.31 in 10.0 mi NNW 5.8 mph - N/A   Partly Cloudy
11:45 AM 57.2 °F - 23.0 °F 27% 30.30 in 10.0 mi West 8.1 mph 23.0 mph N/A   Partly Cloudy
12:45 PM 57.2 °F - 23.0 °F 27% 30.30 in 10.0 mi NW 10.4 mph 25.3 mph N/A   Partly Cloudy
1:45 PM 59.0 °F - 24.8 °F 27% 30.27 in 10.0 mi WNW 17.3 mph 28.8 mph N/A   Partly Cloudy
2:55 PM 59.0 °F - 28.4 °F 31% 30.24 in 10.0 mi West 12.7 mph 25.3 mph N/A   Scattered Clouds
3:55 PM 59.0 °F - 30.2 °F 34% 30.22 in 10.0 mi WSW 17.3 mph 25.3 mph N/A   Scattered Clouds
4:45 PM 57.2 °F - 30.2 °F 36% 30.22 in 10.0 mi West 15.0 mph 26.5 mph N/A   Scattered Clouds
5:45 PM 55.4 °F - 32.0 °F 41% 30.21 in 10.0 mi West 16.1 mph 26.5 mph N/A   Scattered Clouds
5:55 PM 55.4 °F - 32.0 °F 41% 30.22 in 10.0 mi West 17.3 mph 23.0 mph N/A   Clear
6:15 PM 55.4 °F - 30.2 °F 38% 30.21 in 10.0 mi West 18.4 mph 25.3 mph N/A   Clear
6:35 PM 53.6 °F - 32.0 °F 44% 30.22 in 10.0 mi West 15.0 mph 23.0 mph N/A   Clear
6:55 PM 53.6 °F - 32.0 °F 44% 30.21 in 10.0 mi West 10.4 mph - N/A   Clear
7:15 PM 51.8 °F - 32.0 °F 47% 30.21 in 10.0 mi West 9.2 mph - N/A   Clear
7:35 PM 50.0 °F - 28.4 °F 43% 30.22 in 10.0 mi West 5.8 mph - N/A   Clear
7:55 PM 48.2 °F - 28.4 °F 46% 30.22 in 10.0 mi West 9.2 mph - N/A   Partly Cloudy
8:15 PM 48.2 °F - 28.4 °F 46% 30.22 in 10.0 mi West 9.2 mph - N/A   Partly Cloudy
8:35 PM 46.4 °F 41.9 °F 28.4 °F 50% 30.22 in 10.0 mi West 9.2 mph - N/A   Clear
8:55 PM 46.4 °F 42.9 °F 30.2 °F 53% 30.24 in 10.0 mi West 6.9 mph - N/A   Clear
9:15 PM 42.8 °F 39.3 °F 28.4 °F 57% 30.24 in 10.0 mi ESE 5.8 mph - N/A   Clear
9:35 PM 41.0 °F 39.0 °F 28.4 °F 61% 30.24 in 10.0 mi SW 3.5 mph - N/A   Clear
9:55 PM 39.2 °F 37.0 °F 28.4 °F 65% 30.24 in 10.0 mi WSW 3.5 mph - N/A   Clear
10:15 PM 41.0 °F 39.0 °F 28.4 °F 61% 30.24 in 10.0 mi WSW 3.5 mph - N/A   Clear
10:35 PM 37.4 °F 33.8 °F 28.4 °F 70% 30.24 in 10.0 mi SSE 4.6 mph - N/A   Clear
10:55 PM 35.6 °F 30.7 °F 28.4 °F 75% 30.24 in 10.0 mi SE 5.8 mph - N/A   Clear
11:15 PM 35.6 °F 31.7 °F 28.4 °F 75% 30.24 in 10.0 mi SE 4.6 mph - N/A   Clear
11:35 PM 35.6 °F 32.8 °F 28.4 °F 75% 30.24 in 10.0 mi South 3.5 mph - N/A   Clear
11:55 PM 32.0 °F - 28.4 °F 87% 30.24 in 10.0 mi Calm Calm - N/A   Clear